Terug naar catalogus

FENGYUN 1C DEB

LostSSO
NORAD 36999·DEBRIS·🇨🇳 China

Gelanceerd May 10, 1999 vanaf Taiyuan Satellite Launch Center

Loading…

Volgende Passages (komende 24 uur)

TLE

VerouderdSource: Space-Track

Epoch: Oct 1, 2017, 21:46 UTC

1 36999U 99025ECF 17274.90761831  .00000945  00000-0  77085-3 0  9995
2 36999  99.2540 163.5375 0194857 328.3737  30.5827 13.83869284466478

Volg FENGYUN 1C DEB in realtime met AllMySat

Download on the App Store